Weather Roundup
Issued by NWS Springfield, MO

Home | Current Version | Previous Version | Text Only | Print | Product List | Glossary On
Versions: 1 2 3 4 5 6 7 8 9 10 11 12 13 14 15 16 17 18 19 20 21 22 23 24 25 26 27 28 29 30 31 32 33 34 35 36 37 38 39 40 41 42 43 44 45 46 47 48 49 50
000
NZUS99 KSGF 062059
HRRSGF

HOURLY WEATHER
NATIONAL WEATHER SERVICE SPRINGFIELD MO
400 PM CDT WED MAY 06 2015

......SGF CWA......

CITY           SKY/WX    TMP DP  RH WIND       PRES   REMARKS
SPRINGFIELD    MOSUNNY   77  55  46 S22G30    29.99F
JOPLIN         MOSUNNY   80  55  42 SE25G36   29.92F
WEST PLAINS    PTSUNNY   79  52  38 SE15G22   30.06F
ROLLA          MOSUNNY   79  52  38 SE16G24   30.01F
OSAGE BEACH    CLOUDY    81  55  41 S14G21    30.00F
BRANSON        PTSUNNY   77  55  47 SE13G24   30.03F

......SURROUNDING SGF CWA......

CITY           SKY/WX    TMP DP  RH WIND       PRES   REMARKS
CHANUTE        CLOUDY    75  64  68 S20G25    29.89F
PARSONS        CLOUDY    74  64  71 S7        29.91F
EMPORIA        CLOUDY    69  63  81 SE22G31   29.84F
SILOAM SPRINGS MOSUNNY   79  55  44 S17G26    29.98F
HARRISON AR    PTSUNNY   78  56  46 SE15G23   30.02F
NEAR YELLVILLE PTSUNNY   79  55  44 SE6       30.01F

......KANSAS AND MISSOURI......

CITY           SKY/WX    TMP DP  RH WIND       PRES   REMARKS
KANSAS CTY INT TSTM      66  58  75 S21G29    29.93S
DOWNTOWN KC    CLOUDY    65  59  81 S16G25    29.95R
COLUMBIA       CLOUDY    78  58  49 S12       30.00F
SEDALIA        CLOUDY    77  63  61 S14       29.98F
ST JOSEPH      CLOUDY    73  60  63 S25G32    29.89F
ST LOUIS       MOSUNNY   87  51  28 SE16G25   30.04F
SPIRIT OF STL  MOSUNNY   84  52  33 S10       30.01F
KIRKSVILLE     PTSUNNY   72  59  63 SW18G29   30.00F
WICHITA        PTSUNNY   75  66  73 S25G38    29.76F
TOPEKA         CLOUDY    70  60  70 S20G33    29.87F
OLATHE         CLOUDY    64  60  87 SE8       29.93F

......TENNESSEE......

CITY           SKY/WX    TMP DP  RH WIND       PRES   REMARKS
MEMPHIS        PTSUNNY   84  49  29 SE10      30.06F
NASHVILLE      MOSUNNY   85  52  32 CALM      30.10F

......ARKANSAS.......

CITY           SKY/WX    TMP DP  RH WIND       PRES   REMARKS
FAYETTEVILLE   SUNNY     76  67  73 S20G32    29.99F
FT SMITH       PTSUNNY   79  56  45 SE8G17    29.96F
LITTLE ROCK    PTSUNNY   85  55  35 S10G17    30.01F

......OKLAHOMA.......

CITY           SKY/WX    TMP DP  RH WIND       PRES   REMARKS
TULSA          PTSUNNY   78  65  63 S17G29    29.87F
PONCA CITY     CLOUDY    77  68  73 SE23G32   29.80F
MCALESTER      PTSUNNY   77  66  68 SE8G22    29.92F
OKLAHOMA CITY  PTSUNNY   72  66  81 SE18G25   29.82F

......IOWA............

CITY           SKY/WX    TMP DP  RH WIND       PRES   REMARKS
DES MOINES     LGT RAIN  74  57  55 S20G31    29.92S
QUAD CITIES    MOSUNNY   82  53  36 S15G22    29.99F

......ILLINOIS........

CITY           SKY/WX    TMP DP  RH WIND       PRES   REMARKS
QUINCY         CLOUDY    78  55  44 S15G25    30.02S
CHICAGO        PTSUNNY   71  57  61 NE9       30.09F




USA.gov is the U.S. government's official web portal to all federal, state and local government web resources and services.